Current Weather Conditions: station ENFB

sailwx.info

See reports from other nearby stations

no recent reports received from weather station ID ENFB

Tides Pressure Air temp Water temp Dewpoint Dewpoint depression Visibility Wind speed Wind direction Waves Ship positions
date/time (UTC)wind fromknots sea level pressurealtimeterstation pressurevisibilityair tempwater tempwave heightnotes
2016-Dec-04 00:20 270 20 5.4 9.0
2016-Dec-03 23:50 270 19 5.4 9.0
2016-Dec-03 23:20 270 19 5.4 9.0
2016-Dec-03 22:50 270 18 5.4 9.0
2016-Dec-03 22:20 280 17 5.4 9.0
2016-Dec-03 21:50 280 17 5.4 9.0
2016-Dec-03 21:20 280 19 5.4 9.0
2016-Dec-03 20:50 280 20 5.4 9.0
2016-Dec-03 20:20 280 20 5.4 9.0
2016-Dec-03 19:50 280 19 5.4 9.0
2016-Dec-03 19:20 280 20 5.4 9.0
2016-Dec-03 18:50 270 17 5.4 9.0
2016-Dec-03 18:20 270 18 5.4 9.0
2016-Dec-03 17:50 270 13 5.4 9.0 Light rain showers.
2016-Dec-03 17:20 270 15 5.4 9.0
2016-Dec-03 16:50 280 17 5.4 8.0 Light rain showers.
2016-Dec-03 16:20 270 22 5.4 8.0 Light rain.
2016-Dec-03 15:50 270 19 5.4 9.0
2016-Dec-03 15:20 280 18 5.4 9.0
2016-Dec-03 14:50 280 19 5.4 9.0
2016-Dec-03 14:20 280 20 5.4 9.0
2016-Dec-03 13:50 280 21 5.4 9.0
2016-Dec-03 13:20 280 19 5.4 8.0 Light rain.
2016-Dec-03 12:50 280 21 5.4 9.0
2016-Dec-03 12:20 270 21 5.4 8.0
2016-Dec-03 11:50 300 13 5.4 8.0 Light rain showers.
2016-Dec-03 11:20 290 9 5.4 8.0 Light rain showers.
2016-Dec-03 10:50 280 18 5.4 8.0
2016-Dec-03 10:20 280 19 5.4 8.0
2016-Dec-03 09:50 270 20 5.4 8.0 Light rain showers.
2016-Dec-03 09:20 280 18 5.4 8.0
2016-Dec-03 08:50 280 19 5.4 8.0
2016-Dec-03 08:20 290 20 5.4 8.0 Light rain.
2016-Dec-03 07:50 270 20 5.4 8.0
2016-Dec-03 07:20 280 15 5.4 8.0
2016-Dec-03 06:50 270 19 5.4 9.0 Light rain showers.
2016-Dec-03 06:20 260 11 5.4 8.0
2016-Dec-03 05:50 270 11 5.4 8.0
2016-Dec-03 05:20 290 20 5.4 8.0
2016-Dec-03 04:50 280 17 5.4 9.0
2016-Dec-03 04:20 280 14 5.4 9.0
2016-Dec-03 03:50 280 15 5.4 9.0
2016-Dec-03 03:20 280 13 5.4 8.0
2016-Dec-03 02:50 260 13 5.4 8.0
2016-Dec-03 02:20 260 13 5.4 7.0 Light rain.
2016-Dec-03 01:50 260 18 5.4 8.0
2016-Dec-03 01:20 240 17 5.4 8.0
2016-Dec-03 00:50 230 19 5.4 7.0
2016-Dec-03 00:20 240 18 5.4 7.0
2016-Dec-02 23:50 240 17 5.4 7.0
2016-Dec-02 23:20 240 18 5.4 7.0
2016-Dec-02 22:50 230 17 5.4 7.0
2016-Dec-02 22:20 230 15 5.4 7.0
2016-Dec-02 21:50 240 14 5.4 7.0
2016-Dec-02 21:20 240 14 5.4 7.0
2016-Dec-02 20:50 250 14 5.4 7.0
2016-Dec-02 20:20 260 13 5.4 7.0
2016-Dec-02 19:50 250 13 5.4 7.0
2016-Dec-02 19:20 250 13 5.4 7.0
2016-Dec-02 18:50 250 13 5.4 7.0
2016-Dec-02 18:20 240 7 5.4 6.0
2016-Dec-02 17:50 250 7 5.4 6.0
2016-Dec-02 17:20 260 7 5.4 6.0
2016-Dec-02 16:50 270 6 5.4 6.0
2016-Dec-02 16:20 280 8 5.4 6.0
2016-Dec-02 15:50 270 8 5.4 5.0
2016-Dec-02 15:20 290 11 5.4 5.0 Light rain showers.
2016-Dec-02 14:50 300 6 5.4 5.0
2016-Dec-02 14:20 300 9 5.4 6.0 Light rain.
2016-Dec-02 13:50 300 7 5.4 6.0
2016-Dec-02 13:20 300 8 5.4 7.0
2016-Dec-02 12:50 290 8 5.4 6.0
2016-Dec-02 12:20 320 8 5.4 7.0
2016-Dec-02 11:50 310 8 5.4 7.0
2016-Dec-02 11:20 340 7 5.4 6.0
2016-Dec-02 10:50 350 12 5.4 6.0
2016-Dec-02 10:20 340 9 5.4 6.0
2016-Dec-02 09:50 330 9 5.4 6.0
2016-Dec-02 09:20 320 13 5.4 6.0
2016-Dec-02 08:50 340 11 5.4 6.0
2016-Dec-02 08:20 330 13 5.4 6.0
2016-Dec-02 07:50 330 14 5.4 6.0
2016-Dec-02 07:20 340 15 5.4 6.0
2016-Dec-02 06:50 330 14 5.4 6.0
2016-Dec-02 06:20 340 13 5.4 6.0
2016-Dec-02 05:50 350 14 5.4 6.0
2016-Dec-02 05:20 350 14 5.4 6.0
2016-Dec-02 04:50 010 15 5.4 6.0
2016-Dec-02 04:20 360 13 5.4 6.0
2016-Dec-02 03:50 350 19 5.4 6.0
2016-Dec-02 03:20 350 19 5.4 6.0
2016-Dec-02 02:50 350 15 5.4 6.0
2016-Dec-02 02:20 350 19 5.4 6.0
2016-Dec-02 01:50 340 19 5.4 6.0
2016-Dec-02 01:20 350 20 5.4 6.0 Light rain showers.